Miscellaneous Local Product
Issued by NWS Hastings, NE

Home | Current Version | Previous Version | Graphics & Text | Print | Product List | Glossary On
Versions: 1 2 3 4 5 6 7 8 9 10 11 12 13 14 15 16 17 18 19 20 21 22 23 24 25 26 27 28 29 30 31 32 33 34 35 36 37 38 39 40 41 42 43 44 45 46 47 48 49 50
000
AXUS43 KGID 220102
MISGRI

GID CWA HOURLY WEATHER ROUNDUP
NATIONAL WEATHER SERVICE HASTINGS NE
800 PM CDT THU SEP 21 2017

NOTE: "FAIR" INDICATES FEW OR NO CLOUDS BELOW 12,000 FEET WITH NO
SIGNIFICANT WEATHER AND/OR OBSTRUCTIONS TO VISIBILITY.

...SOUTH CENTRAL NEBRASKA...

CITY           SKY/WX    TMP DP  RH WIND       PRES   REMARKS
GRAND ISLAND   CLEAR     86  67  52 SE14      29.68R
HASTINGS       CLEAR     88  63  43 SE12G21   29.68S
KEARNEY        CLEAR     84  59  42 S12       29.67R
ORD            CLEAR     85  63  47 SE14      29.64R
YORK           CLEAR     86  68  54 SE13G21   29.71R
AURORA         CLEAR     84  67  54 SE13      29.69S
LEXINGTON      CLEAR     82  46  28 S9        29.66R
HOLDREGE       CLEAR     80  44  27 S6        29.67R
HEBRON         CLEAR     88  69  53 SE13G18   29.71R HX  92

...NEBRASKA PANHANDLE...

CITY           SKY/WX    TMP DP  RH WIND       PRES   REMARKS
CHADRON        CLEAR     75  37  25 N24G31    29.63R
ALLIANCE       CLEAR     66  47  50 E10       29.64F
SCOTTSBLUFF    CLEAR     72  42  34 E10       29.62S
SIDNEY         CLEAR     76  42  29 NE9       29.66S

...WESTERN AND NORTH CENTRAL NEBRASKA...

CITY           SKY/WX    TMP DP  RH WIND       PRES   REMARKS
VALENTINE      CLEAR     77  51  40 N6        29.64R
AINSWORTH      CLEAR     75  57  53 SE9       29.65F
ONEILL         CLEAR     82  68  60 SE12      29.66S
BROKEN BOW     CLEAR     84  49  29 S12       29.65R
IMPERIAL       CLEAR     84  38  19 SE14      29.62R
NORTH PLATTE   CLEAR     88  39  17 S14       29.62R
MCCOOK         LGT RAIN  87  42  20 S12       29.64R

...EASTERN NEBRASKA...

CITY           SKY/WX    TMP DP  RH WIND       PRES   REMARKS
NORFOLK        CLEAR     84  70  62 SE15      29.69R
SO SIOUX CITY  CLEAR     83  73  72 SE10      29.71R
TEKAMAH        CLEAR     82  71  69 SE9       29.72R
COLUMBUS       CLEAR     85  71  63 SE12      29.71R HX  90
ALBION         CLEAR     83  70  63 SE9       29.69R
OMAHA EPPLEY   CLEAR     87  72  60 SE21G29   29.74S HX  93
OFFUTT AFB     CLEAR     85  72  63 SE18G24   29.75R HX  91
MILLARD        CLEAR     86  74  67 SE14      29.74S HX  94
LINCOLN        CLEAR     87  72  60 S20G25    29.73R HX  93
NEBRASKA CITY  CLEAR     84  74  71 S18G25    29.78S HX  92
BEATRICE       PTCLDY    87  74  63 SE16G22   29.74S HX  95
FALLS CITY     CLEAR     85  73  67 S15       29.78S HX  91

...NORTHERN KANSAS...

CITY           SKY/WX    TMP DP  RH WIND       PRES   REMARKS
GOODLAND       CLEAR     82  34  17 S14       29.67R
HILL CITY      CLEAR     89  40  17 S9        29.67R
NORTON         CLEAR     88  30  12 SE8       29.65
PHILLIPSBURG   CLEAR     88  45  22 SE8       29.65R
SMITH CENTER   CLEAR     88  59  37 SE17G23   29.67R
HAYS           PTCLDY    91  58  32 S20       29.68R HX  90
RUSSELL        CLEAR     92  56  29 S21G30    29.68R HX  90
CONCORDIA      CLEAR     88  70  55 S18G28    29.71R HX  93
SALINA         PTCLDY    92  70  48 S22       29.73R HX  97
TOPEKA         CLEAR     85  75  72 SE14      29.81R HX  93



USA.gov is the U.S. government's official web portal to all federal, state and local government web resources and services.